[[{"header":{"parameterUnit":"m.s-1","parameterCategory":1,"la1":30.2991,"la2":30.254,"lo1":-89.0895,"lo2":-89.0444,"dy":0.0017,"dx":0.0017,"nx":28,"ny":28,"refTime":"2024-07-06T09:00:00:Z","depth":0,"parameterNumber":2,"parameterNumberName":"U-component_of_WINDS"},"data":[0,0,0,0,0,0,0,0,0,0,0,0,0,0,0,0,0,0,0,0,0,0,0,0,0,0,0,0,0,0,0,0,0,0,0,0,0,0,0,0,0,0,0,0,0,0,0,0,0,0,0,0,0,0,0,0,0,0,1.2787,1.2789,0,1.2999,1.3002,1.3004,1.3077,1.3076,1.3075,1.3075,1.3295,1.3301,1.3308,0,0,0,0,0,0,0,0,0,0,0,0,0,1.2446,1.2452,1.2787,1.2789,1.2792,1.2999,1.3002,1.3005,1.3077,1.3076,1.3075,1.3074,1.3292,1.33,1.3308,0,0,0,0,0,0,0,0,0,0,0,0,0,1.262,1.2454,1.2786,1.2853,1.2861,1.2998,1.3002,1.3005,1.3077,1.3076,1.3075,1.3074,1.329,1.3299,1.3309,1.3396,0,0,1.334,1.3344,0,0,0,0,0,0,0,0,1.261,1.2632,1.2841,1.2849,1.2858,1.301,1.2962,1.3136,1.3078,1.2995,1.3075,1.3073,1.3201,1.3218,1.3261,1.3406,1.3416,1.3341,1.3347,1.3351,1.3354,0,0,0,0,0,0,0,1.2598,1.2624,1.2871,1.2843,1.2854,1.2873,1.2897,1.2996,1.3103,1.3002,1.3008,1.3032,1.3206,1.3251,1.3267,1.3419,1.334,1.3349,1.3355,1.3359,1.3647,1.3649,0,0,0,0,0,0,1.2574,1.2613,1.2864,1.2877,1.2728,1.288,1.2906,1.2963,1.3102,1.3122,1.3033,1.3035,1.3235,1.3255,1.3275,1.3386,1.3351,1.336,1.3366,1.3646,1.3648,1.3649,0,0,0,0,0,0,1.2567,1.2596,1.2856,1.2747,1.2781,1.2888,1.295,1.2968,1.3013,1.3125,1.3145,1.306,1.3235,1.3261,1.3365,1.3395,1.3365,1.3374,1.3644,1.3646,1.3648,1.3608,0,0,0,0,0,0,1.2557,1.2593,1.2626,1.2747,1.2787,1.2942,1.2952,1.2973,1.303,1.3034,1.3155,1.3174,1.3236,1.335,1.3375,1.3408,1.3381,1.3641,1.3645,1.3648,1.3608,1.3609,1.3611,0,0,0,0,0,1.2544,1.2607,1.2627,1.2657,1.2831,1.2943,1.2966,1.3035,1.3032,1.3067,1.3139,1.317,1.3387,1.336,1.3389,1.3425,1.364,1.3644,1.3647,1.3607,1.3609,1.361,0,0,0,0,0,0,1.2487,1.2624,1.2648,1.2752,1.2835,1.2955,1.3001,1.3034,1.3121,1.3121,1.3204,1.3231,1.3329,1.3388,1.3355,1.3517,1.3515,1.3525,1.3475,1.3478,1.3479,1.3463,1.339,0,0,0,0,0,1.2486,1.2565,1.2681,1.2761,1.2802,1.2894,1.2946,1.2991,1.3081,1.3117,1.3197,1.3284,1.3372,1.3428,1.3515,1.3616,1.3644,1.3656,1.3657,1.3658,1.3665,1.3724,1.373,1.3662,1.3662,1.3662,0,0,1.2486,1.257,1.2615,1.2752,1.2822,1.2903,1.2923,1.3008,1.3069,1.3131,1.3234,1.3295,1.3398,1.3501,1.3551,1.3553,1.369,1.3663,1.3662,1.367,1.3728,1.3735,1.374,1.3664,1.3664,1.3663,0,0,1.2526,1.2598,1.2673,1.2743,1.2848,1.2909,1.2927,1.3043,1.3086,1.3191,1.3239,1.3313,1.3463,1.3534,1.359,1.3658,1.369,1.3684,1.3692,1.3748,1.3753,1.3758,1.3783,1.3791,1.3691,1.3691,1.3691,0,1.2512,1.2636,1.2707,1.2789,1.2848,1.2907,1.2984,1.3049,1.3177,1.3217,1.3218,1.3407,1.348,1.3601,1.3618,1.3661,1.3684,1.367,1.3746,1.3752,1.3758,1.3783,1.3792,1.3689,1.369,1.369,1.369,0,1.2614,1.2698,1.2746,1.2868,1.2933,1.3012,1.3096,1.3153,1.3193,1.3254,1.3361,1.3451,1.3558,1.359,1.363,1.3717,1.3715,1.373,1.3731,1.3762,1.3787,1.3796,1.3687,1.3688,1.3688,1.3689,0,0,1.2623,1.2785,1.2801,1.2857,1.2979,1.3046,1.3128,1.3232,1.3279,1.3366,1.3438,1.3563,1.3578,1.3641,1.369,1.3739,1.3788,1.3749,1.3752,1.3753,1.389,1.3877,1.3887,1.381,1.3812,1.3814,1.3881,0,1.268,1.2828,1.2895,1.3014,1.3094,1.3151,1.3223,1.3305,1.3365,1.3442,1.3508,1.3596,1.3608,1.3647,1.3698,1.3771,1.3816,1.3767,1.3878,1.3881,1.385,1.39,1.3887,1.3946,1.3891,1.3893,1.3894,0,1.2765,1.2851,1.2978,1.309,1.3126,1.3189,1.329,1.3362,1.3458,1.3498,1.3568,1.3615,1.3705,1.3699,1.3824,1.3789,1.3839,1.3881,1.3885,1.3898,1.3889,1.3914,1.3967,1.3975,1.3909,1.3908,1.3907,0,1.2759,1.2908,1.3003,1.3049,1.3183,1.3226,1.3284,1.3378,1.3436,1.3524,1.3563,1.366,1.3714,1.3789,1.3861,1.385,1.398,1.398,1.4016,1.4014,1.404,1.4038,1.4101,1.4072,1.4072,1.4072,1.4072,0,1.2815,1.289,1.3002,1.306,1.3147,1.3224,1.3307,1.3369,1.3452,1.3524,1.3581,1.3647,1.3739,1.3818,1.3875,1.397,1.3994,1.4029,1.4044,1.4024,1.402,1.4058,1.4056,1.4074,1.4074,1.4073,1.4073,0,1.2823,1.2901,1.3008,1.3126,1.3157,1.3216,1.3317,1.3376,1.3439,1.3529,1.3555,1.3653,1.3749,1.3829,1.3954,1.3993,1.4092,1.4109,1.4059,1.4067,1.4098,1.4094,1.4189,1.4205,1.4164,1.4164,1.4165,0,1.2853,1.2912,1.3036,1.3088,1.3145,1.3228,1.3288,1.3366,1.3426,1.3539,1.3585,1.3684,1.3768,1.3918,1.4001,1.4098,1.4118,1.4144,1.4132,1.4111,1.4118,1.4114,1.412,1.4145,1.4145,1.4145,1.4145,0,1.2898,1.2934,1.3017,1.3115,1.3184,1.3264,1.3346,1.3386,1.348,1.3545,1.3642,1.3707,1.3835,1.3933,1.4039,1.41,1.4138,1.4148,1.4161,1.4142,1.4111,1.4128,1.4061,1.4145,1.4145,1.4145,1.4145,1.4145,1.2919,1.2974,1.307,1.3161,1.3231,1.3306,1.3368,1.3438,1.3521,1.3631,1.3673,1.3773,1.3868,1.4014,1.4075,1.4155,1.416,1.4179,1.4184,1.4188,1.4185,1.4098,1.4174,1.4174,1.4175,1.4175,1.4175,0,1.2967,1.3031,1.3114,1.3227,1.3299,1.3329,1.3421,1.348,1.3567,1.3652,1.3733,1.3846,1.3942,1.4032,1.4133,1.418,1.42,1.4203,1.4201,1.4214,1.4175,1.4153,1.4185,1.4185,1.4185,1.4185,1.4185,1.4185,1.3,1.3095,1.3143,1.3274,1.3339,1.3437,1.3487,1.3557,1.3625,1.3749,1.3828,1.3887,1.3975,1.4082,1.4171,1.4196,1.423,1.4229,1.4258,1.4219,1.4217,1.4215,1.4195,1.4236,1.4236,1.4291,1.4291,1.4292]},{"header":{"parameterUnit":"m.s-1","parameterCategory":1,"la1":30.2991,"la2":30.254,"lo1":-89.0895,"lo2":-89.0444,"dy":0.0017,"dx":0.0017,"nx":28,"ny":28,"refTime":"2024-07-06T09:00:00:Z","depth":0,"parameterNumber":3,"parameterNumberName":"V-component_of_WINDS"},"data":[0,0,0,0,0,0,0,0,0,0,0,0,0,0,0,0,0,0,0,0,0,0,0,0,0,0,0,0,0,0,0,0,0,0,0,0,0,0,0,0,0,0,0,0,0,0,0,0,0,0,0,0,0,0,0,0,0,0,4.3191,4.3191,0,4.3129,4.3128,4.3127,4.3088,4.3087,4.3087,4.3087,4.3017,4.3016,4.3014,0,0,0,0,0,0,0,0,0,0,0,0,0,4.3273,4.3272,4.3191,4.3191,4.319,4.3129,4.3128,4.3127,4.3088,4.3087,4.3087,4.3087,4.3018,4.3016,4.3014,0,0,0,0,0,0,0,0,0,0,0,0,0,4.3227,4.3272,4.3192,4.3163,4.316,4.3129,4.3128,4.3127,4.3088,4.3087,4.3087,4.3087,4.3018,4.3016,4.3014,4.3004,0,0,4.3006,4.3005,0,0,0,0,0,0,0,0,4.3229,4.3224,4.3168,4.3165,4.3161,4.3116,4.3131,4.3085,4.3088,4.3115,4.3087,4.3087,4.305,4.3045,4.3034,4.3001,4.2998,4.3006,4.3004,4.3003,4.3002,0,0,0,0,0,0,0,4.3233,4.3226,4.3166,4.3167,4.3163,4.3152,4.3145,4.3122,4.3085,4.3113,4.311,4.3103,4.3048,4.3036,4.3032,4.2997,4.3006,4.3004,4.3002,4.3001,4.2954,4.2955,0,0,0,0,0,0,4.3241,4.3229,4.3168,4.3165,4.3196,4.3151,4.3143,4.3131,4.3085,4.3078,4.3103,4.3101,4.304,4.3035,4.3029,4.3016,4.3003,4.3001,4.2999,4.2954,4.2954,4.2955,0,0,0,0,0,0,4.3243,4.3236,4.3171,4.3196,4.3187,4.315,4.3136,4.313,4.3118,4.3078,4.3071,4.3098,4.304,4.3033,4.3011,4.3013,4.3,4.2997,4.2954,4.2954,4.2955,4.2989,0,0,0,0,0,0,4.3246,4.3237,4.3234,4.3196,4.3186,4.3156,4.3136,4.3128,4.3114,4.3111,4.3071,4.3064,4.3039,4.3015,4.3009,4.3009,4.2996,4.2954,4.2954,4.2954,4.2988,4.2991,4.2993,0,0,0,0,0,4.3249,4.3245,4.3234,4.3227,4.3182,4.3156,4.315,4.3122,4.3114,4.311,4.3085,4.3066,4.3014,4.3013,4.3006,4.3005,4.2953,4.2954,4.2954,4.2986,4.299,4.2993,0,0,0,0,0,0,4.3282,4.3239,4.3227,4.3211,4.3188,4.3149,4.3144,4.3127,4.3104,4.3101,4.3067,4.3058,4.304,4.302,4.3021,4.2994,4.2981,4.298,4.3008,4.3011,4.3014,4.3019,4.2993,0,0,0,0,0,4.3288,4.3272,4.3235,4.3225,4.3214,4.3181,4.3169,4.315,4.3123,4.3113,4.3086,4.3059,4.3037,4.3023,4.3,4.2985,4.2975,4.298,4.2983,4.2986,4.2985,4.2976,4.2978,4.2957,4.2957,4.2957,0,0,4.3299,4.3274,4.3266,4.3231,4.321,4.3194,4.3173,4.3156,4.3143,4.3109,4.3088,4.3068,4.3036,4.3018,4.3008,4.3001,4.2989,4.2986,4.2989,4.2987,4.2977,4.2979,4.2981,4.2957,4.2957,4.2957,0,0,4.3311,4.3291,4.328,4.3261,4.3231,4.3209,4.3207,4.3171,4.3157,4.3136,4.3111,4.3094,4.3056,4.3035,4.3019,4.3025,4.3006,4.3018,4.3032,4.3024,4.3025,4.3027,4.3029,4.303,4.3018,4.3018,4.3018,0,4.3328,4.3304,4.3277,4.3262,4.3247,4.3218,4.3207,4.3189,4.3152,4.3142,4.3134,4.3088,4.3064,4.3041,4.3043,4.303,4.3026,4.3022,4.3028,4.3029,4.3029,4.3031,4.3032,4.3019,4.3019,4.3019,4.3019,0,4.3327,4.331,4.3305,4.3273,4.3258,4.3244,4.3214,4.3202,4.3184,4.3163,4.3142,4.3113,4.3084,4.3077,4.3059,4.3052,4.3048,4.3035,4.3021,4.3034,4.3035,4.3035,4.3022,4.3021,4.3021,4.302,0,0,4.3357,4.3312,4.331,4.3296,4.3261,4.3247,4.3232,4.3206,4.3196,4.3172,4.3159,4.3128,4.3116,4.3098,4.3077,4.307,4.3077,4.3057,4.3056,4.3062,4.3067,4.3078,4.3079,4.3064,4.3064,4.3064,4.307,0,4.3364,4.3339,4.3315,4.3297,4.3281,4.3254,4.3241,4.3218,4.3198,4.3181,4.3158,4.3137,4.3122,4.3111,4.3103,4.3078,4.3077,4.3077,4.305,4.305,4.306,4.308,4.3091,4.3098,4.307,4.307,4.307,0,4.3369,4.3349,4.3331,4.3299,4.3291,4.3281,4.3255,4.3239,4.3212,4.3198,4.3179,4.3158,4.314,4.3128,4.3103,4.3103,4.3091,4.3077,4.3077,4.3073,4.3061,4.3077,4.3099,4.31,4.307,4.307,4.307,0,4.3395,4.3362,4.3347,4.3335,4.3298,4.3291,4.3274,4.3247,4.3233,4.321,4.3201,4.3176,4.3162,4.3142,4.3114,4.3108,4.3092,4.3078,4.3079,4.308,4.3077,4.3078,4.3098,4.3069,4.3069,4.3069,4.3069,0,4.3405,4.3395,4.3358,4.3349,4.3337,4.3309,4.3297,4.3278,4.3254,4.324,4.3214,4.3201,4.3165,4.3147,4.3124,4.3107,4.3101,4.3088,4.3083,4.3091,4.3093,4.3083,4.3081,4.3069,4.3069,4.3069,4.3069,0,4.3431,4.3406,4.3388,4.3355,4.3346,4.3338,4.3309,4.3298,4.3278,4.326,4.3254,4.3221,4.3199,4.3169,4.3137,4.3122,4.3108,4.3098,4.3118,4.3114,4.3118,4.3118,4.3132,4.3133,4.3103,4.3104,4.3104,0,4.344,4.3432,4.3398,4.3388,4.3373,4.3357,4.3343,4.3314,4.3301,4.3271,4.3264,4.324,4.322,4.3186,4.3158,4.3133,4.3123,4.313,4.3119,4.3128,4.3124,4.3125,4.3124,4.3133,4.3133,4.3133,4.3134,0,4.3458,4.3447,4.3429,4.3408,4.3393,4.3374,4.3354,4.3347,4.3313,4.33,4.3278,4.3263,4.3231,4.3208,4.318,4.3161,4.3142,4.3138,4.3137,4.3145,4.3157,4.3151,4.3125,4.3137,4.3137,4.3137,4.3136,4.3136,4.3476,4.3468,4.3444,4.3426,4.3408,4.339,4.3379,4.3358,4.334,4.3314,4.3297,4.3276,4.3249,4.321,4.3193,4.3175,4.3167,4.3166,4.3166,4.3166,4.3169,4.316,4.317,4.317,4.3169,4.3169,4.3169,0,4.3494,4.3477,4.3461,4.3435,4.342,4.3405,4.3382,4.337,4.3353,4.3331,4.3312,4.3287,4.3265,4.3236,4.3211,4.3203,4.3193,4.3197,4.3198,4.3194,4.3177,4.3181,4.3206,4.3206,4.3206,4.3206,4.3206,4.3206,4.3502,4.3488,4.3474,4.3451,4.3433,4.3415,4.3403,4.3386,4.3368,4.3342,4.3325,4.3307,4.3281,4.3255,4.3233,4.3225,4.3217,4.3224,4.3214,4.3198,4.3195,4.3192,4.3195,4.3223,4.3223,4.3232,4.3232,4.3232]}]]